Regional Weather Roundup
Issued by NWS

Home | Current Version | Previous Version | Text Only | Print | Product List | Glossary On
Versions: 1 2 3 4 5 6 7 8 9 10 11 12 13 14 15 16 17 18 19 20 21 22 23 24 25 26 27 28 29 30 31 32 33 34 35 36 37 38 39 40 41 42 43 44 45 46 47 48 49
000
ASUS45 KCYS 282010
RWRWY

WYOMING REGIONAL WEATHER ROUNDUP
NATIONAL WEATHER SERVICE CHEYENNE WY
100 PM MST SAT FEB 28 2015

NOTE:  "FAIR" INDICATES FEW OR NO CLOUDS BELOW 12,000 FEET
WITH NO SIGNIFICANT WEATHER AND/OR OBSTRUCTIONS TO VISIBILITY.

WYZ001-282100-
YELLOWSTONE NATIONAL PARK

CITY           SKY/WX    TMP DP  RH WIND       PRES   REMARKS
LK YELLOWSTONE   N/A     18   3  52 E3        29.80F
W YELLOWSTONE  NOT AVBL

$$
WYZ002>013-054>058-071-098>099-282100-
NORTHERN WYOMING

CITY           SKY/WX    TMP DP  RH WIND       PRES   REMARKS
JACKSON        SUNNY     21  10  63 VRB5      29.81F WCI  15
CODY           FAIR      18  10  73 N10       29.99F WCI   6
GREYBULL       CLOUDY    26   8  46 CALM      30.04F
WORLAND        CLOUDY    23  10  57 W3        30.03F
SHERIDAN       CLOUDY    18   7  62 W5        30.09F WCI  11
BUFFALO        FAIR      16   7  67 NE5       30.02F WCI   9
GILLETTE       CLOUDY    18   8  65 VRB7      30.05F WCI   9
HULETT         CLOUDY    18   9  68 NW3       30.06F
NEWCASTLE      FAIR      23   7  50 NW15G21   30.04S WCI  10

$$
WYZ014>020-022>026-101>103-282100-
CENTRAL WYOMING

CITY           SKY/WX    TMP DP  RH WIND       PRES   REMARKS
BIG PINEY      CLOUDY    24  13  62 VRB3      29.80F
PINEDALE       CLOUDY    25  16  68 N7        29.80F WCI  17
DUBOIS         FAIR      19  10  68 SE9       29.83F WCI   9
LANDER         LGT SNOW  19  11  70 N8        29.93F WCI   9
RIVERTON       CLOUDY    19   9  65 NE12      29.95F WCI   7
CASPER         CLOUDY    20   9  62 NE12      29.97F WCI   8
DOUGLAS        CLOUDY    21   9  59 MISG      30.02F

$$
WYZ021-027>030-104>119-282100-
SOUTHERN WYOMING

CITY           SKY/WX    TMP DP  RH WIND       PRES   REMARKS
EVANSTON       FAIR      26  17  68 E20       29.73F WCI  12
FORT BRIDGER   CLOUDY    27  19  70 E9        29.78F WCI  18
ROCK SPRINGS   CLOUDY    24  13  62 E16       29.79F WCI  11
DIXON          FAIR      37  15  41 NW5       29.78F WCI  33
RAWLINS        CLOUDY    27   8  44 E12       29.82F WCI  17
SARATOGA       FAIR      30  14  51 N8        29.78F WCI  23
LARAMIE        FAIR      23   9  55 S18       29.79F WCI   9
CHEYENNE       PTSUNNY   21  11  65 NE8       29.91F WCI  11
TORRINGTON     PTSUNNY   29  11  47 VRB3      30.02S
PINE BLUFFS    FAIR      27  14  59 NE10      29.97F WCI  17

$$


USA.gov is the U.S. government's official web portal to all federal, state and local government web resources and services.